sat.trackr.live / text

‹ back to catalog

STARLINK-32532

NORAD 62156 · 2024-224T

PAYLOAD ACTIVE UNKNOWN

§ Identity

Operator
Country
US
Launch date
2024-11-30
Launch site
AFETR
Launch vehicle
Mass (kg)
RCS (m²)

Purposes: comms

External: N2YO · Heavens-Above · Gunter

§ Orbital elements

Epoch: 2026-09-20T00:44:57.259392Z

Period
94.27 min
Inclination
42.9992°
Eccentricity
0.0001528
Mean motion
15.27585724 rev/d
Perigee alt
482.0 km
Apogee alt
484.1 km
Semi-major
6,861.2 km
B*
4.1796e-4
RAAN
140.4269°
Arg perigee
262.8869°
Mean anomaly
97.1809°
Rev number
10,204

§ Raw data

STARLINK-325321 62156U 24224T   26263.03121828  .00011259  00000+0  41796-3 0  99952 62156  42.9992 140.4269 0001528 262.8869  97.1809 15.27585724102047

JSON: /api/v1/satellites/62156 · /tle

For live sub-satellite position, see the globe view (requires WebGL).

§ Visibility from observer

Set your observer location to see the next 7 days of passes ≥ 10°. The values pass through the URL so the page stays shareable.

No JS? Fill the form by hand. The geolocation button needs JavaScript.